Weather History for Glasgow, United Kingdom

Change the Weather History Date:

Sunday, October 2, 2011

  Actual Average Record
Temperature  
Mean Temperature 58 °F -  
Max Temperature 60 °F 53 °F 64 °F (2002)
Min Temperature 55 °F 42 °F 33 °F (2007)
Degree Days  
Heating Degree Days 8    
Growing Degree Days 8 (Base 50)    
Moisture  
Dew Point 56 °F    
Average Humidity 96    
Maximum Humidity 100    
Minimum Humidity 88    
Precipitation  
Precipitation 0.00 in - - ()
Sea Level Pressure  
Sea Level Pressure 30.09 in    
Wind  
Wind Speed 4 mph ()    
Max Wind Speed 14 mph    
Max Gust Speed -    
Visibility 5.4 miles    
Events Rain    
Averages and records for this station are not official NWS values.
T = Trace of Precipitation, MM = Missing Value Source: Averaged Metar Reports

Daily Weather History Graph

Daily Weather History Graph

Search for Another Location

Airport:

Trip Planner

Search our weather history database for the weather conditions in past years. The results will help you decide how hot, cold, wet, or windy it might be!

Date:

Astronomy

Oct. 02, 2011 Rise Set
Actual Time 7:21 AM BST 6:51 PM BST
Civil Twilight 6:44 AM BST 7:28 PM BST
Nautical Twilight 6:01 AM BST 8:11 PM BST
Astronomical Twilight 5:16 AM BST 8:55 PM BST
Moon 2:21 PM BST (10/2) 9:28 PM BST (10/2)
Length of Visible Light 12h 43m
Length of Day
11h 29m
Waxing Crescent, 32% of the Moon is Illuminated
Oct 2
Waxing Crescent
Oct 4
First Quarter
Oct 12
Full
Oct 20
Last Quarter
Oct 26
New

Hourly Weather History & Observations

Time (BST) Temp. Dew Point Humidity Pressure Visibility Wind Dir Wind Speed Gust Speed Precip Events Conditions
12:20 AM 57.2 °F 57.2 °F 100% 30.21 in 5.6 mi Calm Calm - N/A Rain Light Rain
12:50 AM 57.2 °F 57.2 °F 100% 30.18 in 5.0 mi South 2.3 mph - N/A Rain Light Rain
1:20 AM 57.2 °F 57.2 °F 100% 30.18 in 4.3 mi WSW 2.3 mph - N/A   Light Drizzle
1:50 AM 57.2 °F 57.2 °F 100% 30.21 in 1.5 mi WNW 3.5 mph - N/A   Heavy Drizzle
2:20 AM 57.2 °F 57.2 °F 100% 30.21 in - West 3.5 mph - N/A   Drizzle
2:50 AM 57.2 °F 57.2 °F 100% 30.18 in - Variable 3.5 mph - N/A   Drizzle
3:20 AM 57.2 °F 57.2 °F 100% 30.18 in - East 3.5 mph - N/A   Light Drizzle
3:50 AM 57.2 °F 57.2 °F 100% 30.18 in - Variable 3.5 mph - N/A   Mostly Cloudy
4:20 AM 57.2 °F 55.4 °F 94% 30.15 in 6.2 mi NNE 2.3 mph - N/A   Mostly Cloudy
4:50 AM 57.2 °F 55.4 °F 94% 30.15 in 6.2 mi North 2.3 mph - N/A   Mostly Cloudy
5:20 AM 57.2 °F 57.2 °F 100% 30.15 in 4.3 mi Variable 2.3 mph - N/A Rain Light Rain
5:50 AM 57.2 °F 57.2 °F 100% 30.15 in 4.3 mi WSW 2.3 mph - N/A Rain Light Rain
6:20 AM 57.2 °F 55.4 °F 94% 30.15 in 3.7 mi WNW 3.5 mph - N/A Rain Light Rain
6:50 AM 57.2 °F 55.4 °F 94% 30.12 in 4.3 mi Calm Calm - N/A Rain Light Rain
7:20 AM 55.4 °F 55.4 °F 100% 30.12 in 4.3 mi WSW 2.3 mph - N/A Rain Light Rain
7:50 AM 55.4 °F 55.4 °F 100% 30.12 in - WSW 3.5 mph - N/A Rain Rain
8:20 AM 55.4 °F 55.4 °F 100% 30.12 in 2.2 mi West 2.3 mph - N/A Rain Rain
8:50 AM 55.4 °F 55.4 °F 100% 30.12 in 4.3 mi Calm Calm - N/A Rain Light Rain
9:20 AM 55.4 °F 55.4 °F 100% 30.12 in 3.7 mi WSW 2.3 mph - N/A Rain Light Rain
9:50 AM 57.2 °F 55.4 °F 94% 30.12 in - WNW 3.5 mph - N/A   Light Drizzle
10:20 AM 57.2 °F 55.4 °F 94% 30.09 in - West 2.3 mph - N/A   Light Drizzle
10:50 AM 57.2 °F 57.2 °F 100% 30.09 in - WNW 4.6 mph - N/A   Light Drizzle
11:20 AM 57.2 °F 57.2 °F 100% 30.09 in - WNW 3.5 mph - N/A   Light Drizzle
11:50 AM 57.2 °F 57.2 °F 100% 30.09 in - NW 3.5 mph - N/A   Light Drizzle
12:20 PM 57.2 °F 57.2 °F 100% 30.09 in 2.2 mi WNW 3.5 mph - N/A Rain Light Rain
12:50 PM 57.2 °F 57.2 °F 100% 30.09 in 6.2 mi Variable 3.5 mph - N/A   Light Drizzle
1:20 PM 59.0 °F 57.2 °F 94% 30.06 in 6.2 mi WNW 2.3 mph - N/A   Mostly Cloudy
1:50 PM 59.0 °F 57.2 °F 94% 30.06 in 6.2 mi WSW 4.6 mph - N/A   Mostly Cloudy
2:20 PM 60.8 °F 57.2 °F 88% 30.06 in 6.2 mi SW 10.4 mph - N/A   Mostly Cloudy
2:50 PM 60.8 °F 57.2 °F 88% 30.06 in 6.2 mi SSW 12.7 mph - N/A   Mostly Cloudy
3:20 PM 60.8 °F 57.2 °F 88% 30.06 in 6.2 mi SSW 13.8 mph - N/A   Mostly Cloudy
3:50 PM 59.0 °F 55.4 °F 88% 30.06 in 6.2 mi SW 12.7 mph - N/A   Mostly Cloudy
4:20 PM 59.0 °F 55.4 °F 88% 30.04 in 6.2 mi SW 12.7 mph - N/A   Mostly Cloudy
4:50 PM 59.0 °F 55.4 °F 88% 30.04 in 6.2 mi SW 12.7 mph - N/A   Mostly Cloudy
5:20 PM 57.2 °F 55.4 °F 94% 30.04 in 6.2 mi SW 11.5 mph - N/A   Mostly Cloudy
5:50 PM 57.2 °F 55.4 °F 94% 30.04 in 6.2 mi WSW 8.1 mph - N/A   Mostly Cloudy
6:20 PM 57.2 °F 55.4 °F 94% 30.04 in 6.2 mi WSW 9.2 mph - N/A   Mostly Cloudy
6:50 PM 57.2 °F 55.4 °F 94% 30.04 in 6.2 mi SW 6.9 mph - N/A   Mostly Cloudy
7:20 PM 57.2 °F 55.4 °F 94% 30.04 in 6.2 mi WSW 6.9 mph - N/A   Mostly Cloudy
7:50 PM 57.2 °F 53.6 °F 88% 30.04 in 6.2 mi SW 6.9 mph - N/A   Mostly Cloudy
8:20 PM 57.2 °F 53.6 °F 88% 30.04 in 6.2 mi SW 8.1 mph - N/A   Mostly Cloudy
8:50 PM 55.4 °F 53.6 °F 94% 30.04 in 6.2 mi WSW 4.6 mph - N/A   Mostly Cloudy
9:20 PM 55.4 °F 53.6 °F 94% 30.04 in 6.2 mi SW 5.8 mph - N/A   Mostly Cloudy
9:50 PM 55.4 °F 53.6 °F 94% 30.01 in 5.0 mi SSW 4.6 mph - N/A   Light Drizzle
10:20 PM 55.4 °F 53.6 °F 94% 30.01 in 6.2 mi SW 6.9 mph - N/A   Overcast
10:50 PM 55.4 °F 53.6 °F 94% 30.01 in 6.2 mi WSW 4.6 mph - N/A   Overcast
11:20 PM 57.2 °F 55.4 °F 94% 30.01 in 6.2 mi SSW 8.1 mph - N/A   Overcast
11:50 PM 57.2 °F 55.4 °F 94% 29.98 in 6.2 mi SSW 8.1 mph - N/A   Overcast